FW5493 Weather Reports


time (UTC)temp
F
wind
direction
speed
knots
gust
knots
rain 1hr
in
rain 24hr
in
rain mn
in
humidity
%
barometer
mb
20260504204539 53 350 10.4 15.6 0.00 0.00 0.00 45 1018.1
20260504203034 53 321 8.7 11.3 0.00 0.00 0.00 46 1018.2
20260504201529 53 328 7.0 11.3 0.00 0.00 0.00 48 1018.1
20260504200033 53 297 4.3 11.3 0.00 0.00 0.00 48 1018.1
20260504194532 53 313 4.3 9.6 0.00 0.00 0.00 49 1018.2
20260504193031 52 272 5.2 15.6 0.00 0.00 0.00 51 1018.4
20260504191535 53 311 5.2 8.7 0.00 0.00 0.00 49 1018.5
20260504190033 53 312 5.2 9.6 0.00 0.00 0.00 50 1018.5
20260504184529 52 269 6.1 9.6 0.00 0.00 0.00 52 1018.6
20260504183030 52 297 3.5 11.3 0.00 0.00 0.00 54 1018.7
20260504181534 52 306 5.2 9.6 0.00 0.00 0.00 53 1018.8
20260504180043 51 290 3.5 9.6 0.00 0.00 0.00 52 1018.9
20260504174532 51 302 5.2 8.7 0.00 0.00 0.00 54 1018.9
20260504173032 50 292 5.2 11.3 0.00 0.00 0.00 55 1019.0
20260504171529 50 266 4.3 9.6 0.00 0.00 0.00 56 1019.1
20260504081529 47 349 3.5 8.7 0.00 0.00 0.00 49 1017.8
20260504044536 56 0 0.0 8.7 0.00 0.00 0.00 38 1011.0
20260504043041 56 0 1.7 9.6 0.00 0.00 0.00 37 1011.0
20260504041530 56 0 0.0 8.7 0.00 0.00 0.00 36 1010.6
20260504040035 56 276 4.3 7.0 0.00 0.00 0.00 37 1010.6
20260504034536 58 289 2.6 6.1 0.00 0.00 0.00 33 1010.5
20260504033032 59 266 1.7 5.2 0.00 0.00 0.00 32 1010.2
20260504031530 58 314 1.7 2.6 0.00 0.00 0.00 34 1010.1
20260504030029 60 314 2.6 4.3 0.00 0.00 0.00 31 1010.0
20260504024532 63 325 1.7 3.5 0.00 0.00 0.00 30 1009.8
20260504023030 65 325 2.6 4.3 0.00 0.00 0.00 28 1009.7
20260504021535 67 316 2.6 5.2 0.00 0.00 0.00 28 1009.7
20260504020037 69 315 3.5 7.0 0.00 0.00 0.00 25 1009.7
20260504014537 71 319 5.2 8.7 0.00 0.00 0.00 21 1009.7
20260504013031 72 333 4.3 7.8 0.00 0.00 0.00 20 1009.7
20260504011532 73 311 5.2 9.6 0.00 0.00 0.00 21 1009.9
20260504010032 73 301 6.1 11.3 0.00 0.00 0.00 16 1009.9
20260504004534 73 287 6.1 15.6 0.00 0.00 0.00 15 1009.9
20260504003029 75 299 9.6 13.0 0.00 0.00 0.00 15 1010.2
20260504001532 76 307 11.3 15.6 0.00 0.00 0.00 14 1010.2
20260504000029 76 306 8.7 14.8 0.00 0.00 0.00 14 1010.3
20260503234532 76 330 12.2 17.4 0.00 0.00 0.00 14 1010.3
20260503233029 76 291 11.3 16.5 0.00 0.00 0.00 16 1010.5
20260503231532 77 292 2.6 13.9 0.00 0.00 0.00 17 1010.5
20260503230032 76 301 5.2 15.6 0.00 0.00 0.00 17 1010.7
20260503224529 76 343 7.0 14.8 0.00 0.00 0.00 18 1011.1
20260503223028 76 288 4.3 13.0 0.00 0.00 0.00 16 1011.1
20260503221532 76 306 9.6 15.6 0.00 0.00 0.00 17 1011.4
20260503220032 76 290 5.2 12.2 0.00 0.00 0.00 19 1011.6
20260503214540 76 288 7.8 14.8 0.00 0.00 0.00 19 1011.8
20260503213030 75 279 8.7 20.9 0.00 0.00 0.00 20 1012.1
20260503211529 75 268 7.8 13.0 0.00 0.00 0.00 21 1012.3
20260503210034 75 305 9.6 13.9 0.00 0.00 0.00 21 1012.7